Flag for U.S.A. Weather past 2 weeks in Dickinson, North Dakota, U.S.A.

Now
77 °F

Sunny.


Feels Like: 77 °F
Forecast: 52 / 89 °F
Wind: 12 mph from West

Location: Dickinson Municipal Airport

Current Time: Aug 31, 2015 at 6:45:34 PM

Latest Report: Aug 31, 2015 at 5:56 PM


Visibility: 10 mi

Pressure: 29.85 "Hg (27.44 "Hg at 735m altitude)

Humidity: 26%

Dew point: 40 °F

Location of DickinsonLocation

Historic Weather in Dickinson — Graph

°F

Dickinson temperature yesterday

Maximum temperature yesterday: 91 °F (at 1:56 PM)
Minimum temperature yesterday: 63 °F (at 1:56 AM)
Average temperature yesterday: 73 °F

Past Weeks' High & Low Weather Summary

 TemperatureHumidityPressure
High99 °F (Aug 29, 2:56 PM)97% (Aug 27, 4:56 AM)30.20 "Hg (Aug 27, 4:56 AM)
Low37 °F (Aug 24, 2:56 AM)13% (Aug 29, 1:56 PM)29.45 "Hg (Aug 22, 2:56 AM)
Average65 °F57%29.90 "Hg
* Reported Aug 16 5:56 PM — Aug 31 5:56 PM, Dickinson, Weather by CustomWeather, © 2015

Note: Actual official high and low records may vary slightly from our data, if they occured in-between our weather recording intervals... More about our weather records

Advertising

Dickinson weather history for previous 24 hours

 ConditionsComfort  
Time TempWeatherWind HumidityBarometerVisibility
5:56 PM
Mon, Aug 31
77 °FSunny.12 mph26%29.85 "Hg10 mi
4:56 PM78 °FSunny.14 mph24%29.84 "Hg10 mi
2:56 PM79 °FSunny.14 mph22%29.85 "Hg10 mi
1:56 PM76 °FSunny.10 mph24%29.86 "Hg10 mi
12:56 PM76 °FSunny.15 mph25%29.86 "Hg10 mi
11:56 AM74 °FSunny.15 mph31%29.88 "Hg10 mi
10:56 AM71 °FSunny.18 mph35%29.89 "Hg10 mi
9:56 AM68 °FSunny.16 mph51%29.88 "Hg10 mi
8:56 AM65 °FSunny.17 mph61%29.87 "Hg10 mi
7:56 AM60 °FSunny.9 mph75%29.85 "Hg10 mi
6:56 AM57 °FSunny.5 mph83%29.83 "Hg10 mi
5:56 AM59 °FClear.14 mph84%29.78 "Hg10 mi
4:56 AM60 °FClear.13 mph90%29.73 "Hg10 mi
3:56 AM62 °FClear.8 mph80%29.70 "Hg10 mi
2:56 AM63 °FClear.9 mph78%29.65 "Hg10 mi
1:56 AM67 °FClear.10 mph55%29.59 "Hg10 mi
12:56 AM69 °FClear.6 mph51%29.65 "Hg10 mi
11:56 PM
Sun, Aug 30
67 °FClear.12 mph57%29.69 "Hg10 mi
10:56 PM68 °FPassing clouds.9 mph55%29.64 "Hg10 mi
9:56 PM69 °FClear.9 mph51%29.63 "Hg8 mi
8:56 PM70 °FClear.8 mph51%29.65 "Hg7 mi
7:56 PM74 °FClear.9 mph41%29.65 "Hg8 mi
6:56 PM78 °FSunny.6 mph40%29.67 "Hg4 mi
Weather by CustomWeather, © 2015

See weather overviewHow to use our weather pages